Regional Weather Roundup
Issued by NWS

Home | Current Version | Previous Version | Graphics & Text | Print | Product List | Glossary On
Versions: 1 2 3 4 5 6 7 8 9 10 11 12 13 14 15 16 17 18 19 20 21 22 23 24 25 26 27 28 29 30 31 32 33 34 35 36 37 38 39 40 41 42 43 44 45 46 47 48 49 50
000
ASUS43 KIND 291809
RWRIN

WEATHER ROUNDUP FOR INDIANA
NATIONAL WEATHER SERVICE INDIANAPOLIS IN
200 PM EDT FRI JUL 29 2016

NOTE: "FAIR" INDICATES FEW OR NO CLOUDS BELOW 12,000 FEET WITH NO
SIGNIFICANT WEATHER AND/OR OBSTRUCTIONS TO VISIBILITY.

* - STATION DOES NOT REPORT WEATHER SUCH AS PRECIPITATION OR FOG.

+ - STATION NOT QUALITY CONTROLLED BY THE NATIONAL WEATHER SERVICE.
    USE DATA WITH CAUTION...ESPECIALLY DEWPOINT AND RELATIVE
    HUMIDITY OBSERVATIONS.

INZ001>003-010>013-019-020-291900-
NORTHWEST INDIANA

CITY           SKY/WX    TMP DP  RH WIND       PRES   REMARKS
GARY /AIRPORT/ PTSUNNY   77  73  88 NE5       29.92F
KNOX *+        CLOUDY    81  61  50 CALM      29.92F
LA PORTE +     PTSUNNY   83  74  73 E5        29.93F
6HR MIN TEMP:  73; 6HR MAX TEMP:  85;

MICHIGAN CITY+ HVY RAIN  73  72  94 N10       29.93S
MONTICELLO +   HVY RAIN  80  69  68 S3        29.91S
6HR MIN TEMP:  69; 6HR MAX TEMP:  83; 6HR PCP:  0.01;

RENSSELAER +   LGT RAIN  77  75  94 W3        29.92S
VALPARAISO     PTSUNNY   84  70  62 E7        29.92F
6HR MIN TEMP:  68; 6HR MAX TEMP:  84;


$$

LMZ046-743>745-291900-
SOUTHERN LAKE MICHIGAN

STATION/POSITION TIME  TEMP    WIND        PRES    WAVE
                       AIR SEA DIR/SP/G            HT
                 (UTC) (F)     (DEG/KT/KT) (MB)    (FT)
BURNS HARBOR     1700   75      30/  9/  9 1013.9F
MICHIGAN CITY    1700   75     360/  7/  7   N/A
5NW MICH CITY    1800   76 78   30/  8/ 12   N/A     2

$$

INZ004-005-014>016-021>024-291900-
NORTH CENTRAL INDIANA

CITY           SKY/WX    TMP DP  RH WIND       PRES   REMARKS
ELKHART        CLOUDY    79  68  69 E8        29.96F
GOSHEN         CLOUDY    83  68  60 NE13      29.94F
6HR MIN TEMP:  70; 6HR MAX TEMP:  83;

LOGANSPORT +   PTSUNNY   81  70  69 SW5       29.92F
PERU/GRISSOM   CLOUDY    85  69  60 S5        29.91F
6HR MIN TEMP:  70; 6HR MAX TEMP:  85;

ROCHESTER +    CLOUDY    86  70  58 CALM      29.92F
SOUTH BEND     PTSUNNY   79  69  71 E10       29.94F
6HR MIN TEMP:  69; 6HR MAX TEMP:  80;

WARSAW +       PTSUNNY   75  66  73 E9        29.93F

$$

INZ006>009-017-018-025>027-291900-
NORTHEAST INDIANA

CITY           SKY/WX    TMP DP  RH WIND       PRES   REMARKS
ANGOLA *+        N/A     73  66  78 NE8       29.96F
AUBURN +       MOSUNNY   86  63  45 CALM      29.93S
FORT WAYNE     CLOUDY    85  67  54 N3        29.92F
6HR MIN TEMP:  70; 6HR MAX TEMP:  86;

HUNTINGTON +   CLOUDY    83  66  55 CALM      29.92F
6HR MIN TEMP:  69; 6HR MAX TEMP:  84;


$$

INZ028-029-035-036-043>045-051>053-291900-
WEST CENTRAL INDIANA

CITY           SKY/WX    TMP DP  RH WIND       PRES   REMARKS
CRAWFORDSVL +  PTSUNNY   82  73  75 SW5       29.93S
6HR MIN TEMP:  67; 6HR MAX TEMP:  82;

GREENCASTLE +  MOSUNNY   82  77  83 CALM      29.93F
LAFAYETTE      PTSUNNY   83  72  69 W8        29.90F
6HR MIN TEMP:  69; 6HR MAX TEMP:  84;

TERRE HAUTE    PTSUNNY   84  70  62 CALM      29.91F
6HR MIN TEMP:  70; 6HR MAX TEMP:  86;


$$

INZ030>032-037>040-046>048-054>057-064-065-291900-
CENTRAL INDIANA

CITY           SKY/WX    TMP DP  RH WIND       PRES   REMARKS
ANDERSON       MOSUNNY   84  70  61 S6        29.93F
COLUMBUS       PTSUNNY   82  75  78 SE5       29.93F
FISHERS *+     CLOUDY    84  75  74 SW10      29.91F
INDIANAPOLIS   CLOUDY    85  71  63 S8        29.92F
6HR MIN TEMP:  71; 6HR MAX TEMP:  85;

-EAGLE CREEK   MOSUNNY   87  69  54 VRB6      29.90F
6HR MIN TEMP:  72; 6HR MAX TEMP:  87;

KOKOMO *+      CLOUDY    82  66  57 E3        29.92F
6HR MIN TEMP:  68; 6HR MAX TEMP:  82; 6HR PCP:  0.05;

MARION +       CLOUDY    83  69  61 S3        29.93F
MT COMFORT *+  CLOUDY    81  72  74 S9        29.93S
SHELBYVILLE    PTSUNNY   83  70  64 SW6       29.92F
6HR MIN TEMP:  71; 6HR MAX TEMP:  85;

ZIONSVILLE +   PTSUNNY   83  73  70 W7        29.92F
6HR MIN TEMP:  68; 6HR MAX TEMP:  83;


$$

INZ033-034-041-042-049-050-058-059-291900-
EAST CENTRAL INDIANA

CITY           SKY/WX    TMP DP  RH WIND       PRES   REMARKS
MUNCIE         PTSUNNY   84  71  65 W6        29.92F
6HR MIN TEMP:  72; 6HR MAX TEMP:  87;


$$

INZ060-061-067>069-081>083-085>088-291900-
SOUTHWEST INDIANA

CITY           SKY/WX    TMP DP  RH WIND       PRES   REMARKS
EVANSVILLE     PTSUNNY   84  73  69 W6        29.93F
6HR MIN TEMP:  72; 6HR MAX TEMP:  84;

HUNTINGBURG *+ PTSUNNY   82  73  74 W5        29.94R
6HR MIN TEMP:  70; 6HR MAX TEMP:  82;

WASHINGTON +   MOSUNNY   84  74  72 MISG      29.92F
6HR MIN TEMP:  70; 6HR MAX TEMP:  84;


$$

INZ062-063-066-070>080-084-089>092-291900-
SOUTH CENTRAL AND SOUTHEAST INDIANA

CITY           SKY/WX    TMP DP  RH WIND       PRES   REMARKS
BLOOMINGTON    PTSUNNY   83  73  72 W5        29.93S
6HR MIN TEMP:  69; 6HR MAX TEMP:  84;

MADISON *+     PTSUNNY   82  70  65 SW6       29.95F
NORTH VERNON + PTSUNNY   84  77  79 CALM      29.93F
SEYMOUR +      MOSUNNY   84  72  65 CALM      29.92F

$$





USA.gov is the U.S. government's official web portal to all federal, state and local government web resources and services.